[[{"header":{"parameterUnit":"m.s-1","parameterCategory":2,"la1":30.2991,"la2":30.254,"lo1":-89.0895,"lo2":-89.0444,"dy":0.0017,"dx":0.0017,"nx":28,"ny":28,"refTime":"2025-08-18T21:00:00:Z","depth":"0","parameterNumber":2,"parameterNumberName":"U-component_of_CURRENTS"},"data":[0,0,0,0,0,0,0,0,0,0,0,0,0,0,0,0,0,0,0,0,0,0,0,0,0,0,0,0,0,0,0,0,0,0,0,0,0,0,0,0,0,0,0,0,0,0,0,0,0,0,0,0,0,0,0,0,0,0,-0.3202,-0.3205,0,-0.3392,-0.3394,-0.3396,-0.3425,-0.3424,-0.3423,-0.3422,-0.3395,-0.3395,-0.3396,0,0,0,0,0,0,0,0,0,0,0,0,0,-0.2714,-0.2724,-0.3202,-0.3205,-0.3208,-0.3392,-0.3394,-0.3396,-0.3425,-0.3424,-0.3422,-0.3421,-0.3395,-0.3395,-0.3396,0,0,0,0,0,0,0,0,0,0,0,0,0,-0.2913,-0.2727,-0.3201,-0.3248,-0.3254,-0.3392,-0.3394,-0.3397,-0.3426,-0.3424,-0.3422,-0.342,-0.3394,-0.3395,-0.3396,-0.3438,0,0,-0.3398,-0.3398,0,0,0,0,0,0,0,0,-0.2902,-0.2931,-0.3238,-0.3245,-0.3252,-0.3387,-0.3213,-0.3402,-0.3426,-0.3356,-0.3421,-0.3419,-0.3376,-0.3379,-0.3415,-0.3437,-0.3436,-0.3398,-0.3398,-0.3399,-0.3399,0,0,0,0,0,0,0,-0.2889,-0.2922,-0.3273,-0.3241,-0.325,-0.3208,-0.3235,-0.3249,-0.3367,-0.3362,-0.3366,-0.3395,-0.3378,-0.3415,-0.3414,-0.3435,-0.3398,-0.3399,-0.3399,-0.3399,-0.343,-0.3431,0,0,0,0,0,0,-0.2887,-0.2911,-0.3267,-0.3279,-0.3074,-0.3219,-0.3249,-0.3342,-0.3372,-0.3378,-0.3396,-0.3395,-0.3414,-0.3413,-0.3413,-0.3332,-0.3399,-0.3399,-0.34,-0.343,-0.3431,-0.3431,0,0,0,0,0,0,-0.2877,-0.2919,-0.3259,-0.3097,-0.3138,-0.3231,-0.3334,-0.3347,-0.3377,-0.3401,-0.3401,-0.3412,-0.3413,-0.3412,-0.3416,-0.3335,-0.34,-0.34,-0.343,-0.343,-0.3431,-0.3254,0,0,0,0,0,0,-0.2863,-0.2916,-0.2954,-0.3101,-0.3148,-0.331,-0.3337,-0.3352,-0.3401,-0.3401,-0.3415,-0.3412,-0.3411,-0.3415,-0.3417,-0.3337,-0.3401,-0.3429,-0.343,-0.3431,-0.3259,-0.3248,-0.3239,0,0,0,0,0,-0.2846,-0.2894,-0.2957,-0.2998,-0.321,-0.331,-0.3328,-0.3381,-0.3403,-0.3404,-0.3426,-0.3411,-0.342,-0.3417,-0.3418,-0.3337,-0.3429,-0.343,-0.3431,-0.3263,-0.325,-0.3239,0,0,0,0,0,0,-0.2692,-0.2908,-0.2977,-0.309,-0.3185,-0.3315,-0.3323,-0.3384,-0.3413,-0.3402,-0.3426,-0.3424,-0.3394,-0.3423,-0.3419,-0.336,-0.3419,-0.342,-0.3291,-0.3279,-0.3269,-0.3197,-0.3401,0,0,0,0,0,-0.2689,-0.2772,-0.2965,-0.3032,-0.3097,-0.3218,-0.326,-0.331,-0.3372,-0.3385,-0.3406,-0.342,-0.3408,-0.3388,-0.3403,-0.3375,-0.3376,-0.333,-0.332,-0.3311,-0.3261,-0.3224,-0.3202,-0.3434,-0.3434,-0.3434,0,0,-0.2638,-0.2765,-0.2809,-0.3001,-0.3085,-0.3126,-0.3235,-0.3299,-0.3289,-0.3373,-0.3352,-0.3392,-0.3404,-0.3362,-0.3349,-0.3363,-0.3254,-0.3312,-0.3302,-0.3257,-0.3222,-0.3198,-0.3177,-0.3435,-0.3435,-0.3434,0,0,-0.2548,-0.2712,-0.2745,-0.2827,-0.2964,-0.3043,-0.3063,-0.3209,-0.3232,-0.3259,-0.3291,-0.3273,-0.3313,-0.326,-0.3246,-0.3196,-0.3216,-0.3234,-0.309,-0.3054,-0.3032,-0.3013,-0.2997,-0.2978,-0.3209,-0.3208,-0.3208,0,-0.2479,-0.2586,-0.275,-0.279,-0.2842,-0.2998,-0.3018,-0.3055,-0.3162,-0.3176,-0.322,-0.3242,-0.3231,-0.3134,-0.3101,-0.315,-0.3176,-0.3118,-0.303,-0.3012,-0.2994,-0.2984,-0.2964,-0.32,-0.3201,-0.3202,-0.3203,0,-0.242,-0.2495,-0.2515,-0.2629,-0.2682,-0.2734,-0.2841,-0.2878,-0.2949,-0.2997,-0.2987,-0.3005,-0.3011,-0.2998,-0.3015,-0.2894,-0.2968,-0.3029,-0.3036,-0.2958,-0.2956,-0.2938,-0.3188,-0.3191,-0.3193,-0.3195,0,0,-0.2342,-0.246,-0.2469,-0.2508,-0.2627,-0.2683,-0.2657,-0.2725,-0.2731,-0.2777,-0.277,-0.2703,-0.2765,-0.2753,-0.2783,-0.2713,-0.2595,-0.2807,-0.2809,-0.2746,-0.2548,-0.2486,-0.2463,-0.2663,-0.2659,-0.2655,-0.2596,0,-0.227,-0.2303,-0.2373,-0.2375,-0.2431,-0.2537,-0.2515,-0.256,-0.2623,-0.2646,-0.2636,-0.2644,-0.2657,-0.2678,-0.2595,-0.2637,-0.2543,-0.2606,-0.2671,-0.2672,-0.2587,-0.2437,-0.2334,-0.2262,-0.258,-0.2577,-0.2575,0,-0.2223,-0.2265,-0.2266,-0.2337,-0.2373,-0.236,-0.2426,-0.2428,-0.2456,-0.2507,-0.249,-0.2546,-0.2444,-0.2498,-0.2406,-0.2473,-0.246,-0.2465,-0.2466,-0.2442,-0.2575,-0.2396,-0.222,-0.2215,-0.2549,-0.2551,-0.2553,0,-0.2154,-0.2206,-0.221,-0.2235,-0.2311,-0.2311,-0.2344,-0.2382,-0.2408,-0.2423,-0.2458,-0.2399,-0.2403,-0.2355,-0.2355,-0.2399,-0.2285,-0.2365,-0.2272,-0.2273,-0.2203,-0.2201,-0.1976,-0.2231,-0.2232,-0.2232,-0.2232,0,-0.211,-0.2117,-0.2182,-0.2195,-0.22,-0.2265,-0.227,-0.2304,-0.2341,-0.2349,-0.2382,-0.2376,-0.2371,-0.2339,-0.232,-0.223,-0.2252,-0.2177,-0.2214,-0.2146,-0.214,-0.2154,-0.2208,-0.223,-0.223,-0.223,-0.2231,0,-0.2038,-0.2083,-0.21,-0.2159,-0.2174,-0.2179,-0.224,-0.2248,-0.2299,-0.231,-0.2315,-0.235,-0.2303,-0.2283,-0.2225,-0.2185,-0.2072,-0.2075,-0.1998,-0.2021,-0.1916,-0.1967,-0.1794,-0.1741,-0.1945,-0.1942,-0.194,0,-0.2001,-0.2003,-0.2059,-0.2064,-0.2086,-0.2113,-0.213,-0.2206,-0.2225,-0.2287,-0.228,-0.2264,-0.2214,-0.211,-0.2028,-0.1932,-0.1963,-0.1801,-0.1802,-0.1808,-0.1895,-0.1948,-0.1922,-0.1671,-0.1667,-0.1663,-0.1661,0,-0.1918,-0.1938,-0.1952,-0.197,-0.1986,-0.2011,-0.2046,-0.2063,-0.2148,-0.2161,-0.2154,-0.2119,-0.203,-0.1883,-0.1779,-0.1719,-0.1753,-0.1727,-0.1738,-0.161,-0.1647,-0.1652,-0.1856,-0.163,-0.1633,-0.1636,-0.1637,-0.1639,-0.1835,-0.1824,-0.1842,-0.1844,-0.1868,-0.1875,-0.1853,-0.1901,-0.1908,-0.1874,-0.1969,-0.1827,-0.1786,-0.1606,-0.1547,-0.1427,-0.1511,-0.1393,-0.1445,-0.1491,-0.1424,-0.1547,-0.1368,-0.1369,-0.137,-0.1372,-0.1373,0,-0.1713,-0.171,-0.1712,-0.1712,-0.1684,-0.1742,-0.1759,-0.1707,-0.1657,-0.1595,-0.1558,-0.1437,-0.1358,-0.1313,-0.1248,-0.1178,-0.1164,-0.1169,-0.1216,-0.1195,-0.1285,-0.1255,-0.1036,-0.1036,-0.1036,-0.1036,-0.1036,-0.1036,-0.1647,-0.1597,-0.1599,-0.151,-0.151,-0.1433,-0.141,-0.1341,-0.1252,-0.1043,-0.0893,-0.0826,-0.0954,-0.1198,-0.1164,-0.1099,-0.1099,-0.1052,-0.1106,-0.1194,-0.1221,-0.1246,-0.1223,-0.1001,-0.1001,-0.095,-0.095,-0.095]},{"header":{"parameterUnit":"m.s-1","parameterCategory":2,"la1":30.2991,"la2":30.254,"lo1":-89.0895,"lo2":-89.0444,"dy":0.0017,"dx":0.0017,"nx":28,"ny":28,"refTime":"2025-08-18T21:00:00:Z","depth":"0","parameterNumber":3,"parameterNumberName":"V-component_of_CURRENTS"},"data":[0,0,0,0,0,0,0,0,0,0,0,0,0,0,0,0,0,0,0,0,0,0,0,0,0,0,0,0,0,0,0,0,0,0,0,0,0,0,0,0,0,0,0,0,0,0,0,0,0,0,0,0,0,0,0,0,0,0,-0.0155,-0.0153,0,-0.0024,-0.0022,-0.0021,0.007,0.0071,0.0072,0.0073,0.0177,0.0178,0.018,0,0,0,0,0,0,0,0,0,0,0,0,0,-0.0302,-0.03,-0.0155,-0.0153,-0.0151,-0.0024,-0.0022,-0.0021,0.0069,0.0071,0.0072,0.0073,0.0176,0.0178,0.018,0,0,0,0,0,0,0,0,0,0,0,0,0,-0.0215,-0.03,-0.0155,-0.0088,-0.008,-0.0024,-0.0022,-0.0021,0.0069,0.0071,0.0072,0.0074,0.0175,0.0178,0.0181,0.0166,0,0,0.0189,0.019,0,0,0,0,0,0,0,0,-0.022,-0.021,-0.01,-0.0092,-0.0083,0.0012,-0.0036,0.0042,0.0069,0.0009,0.0073,0.0075,0.012,0.0127,0.0144,0.0171,0.0176,0.0189,0.0191,0.0192,0.0193,0,0,0,0,0,0,0,-0.0226,-0.0215,-0.0107,-0.0098,-0.0088,-0.0055,-0.0042,-0.0021,0.0051,0.0014,0.0022,0.0042,0.0124,0.0141,0.0147,0.0177,0.0189,0.0192,0.0193,0.0194,0.029,0.0291,0,0,0,0,0,0,-0.0238,-0.0221,-0.0111,-0.0102,-0.0145,-0.0054,-0.0039,-0.0024,0.0051,0.0066,0.004,0.0046,0.0136,0.0144,0.0151,0.0161,0.0192,0.0195,0.0196,0.0289,0.029,0.0291,0,0,0,0,0,0,-0.0242,-0.023,-0.0116,-0.0155,-0.0138,-0.0053,-0.0036,-0.0022,0.0004,0.0072,0.0086,0.0052,0.0137,0.0147,0.017,0.0165,0.0196,0.0198,0.0288,0.0289,0.0291,0.0167,0,0,0,0,0,0,-0.0247,-0.0232,-0.0239,-0.0157,-0.0136,-0.0093,-0.0037,-0.002,0.0015,0.0023,0.0086,0.0098,0.0139,0.0165,0.0172,0.017,0.02,0.0287,0.0289,0.029,0.017,0.0164,0.0159,0,0,0,0,0,-0.0253,-0.0272,-0.0241,-0.0228,-0.0145,-0.0093,-0.0081,-0.0017,0.0014,0.0013,0.006,0.0096,0.0183,0.0166,0.0175,0.0173,0.0286,0.0288,0.029,0.0173,0.0165,0.0159,0,0,0,0,0,0,-0.0338,-0.0261,-0.0226,-0.022,-0.0162,-0.0076,-0.0074,-0.0025,0.0012,0.0015,0.0084,0.0097,0.0128,0.0168,0.0149,0.0215,0.025,0.0254,0.0158,0.0152,0.0146,0.0119,0.0203,0,0,0,0,0,-0.0361,-0.0356,-0.0269,-0.0266,-0.0241,-0.0159,-0.0134,-0.0088,-0.0035,-0.0016,0.0034,0.0091,0.0142,0.0157,0.0208,0.0215,0.0257,0.0233,0.0227,0.0221,0.0211,0.0257,0.0253,0.0298,0.0298,0.0298,0,0,-0.0389,-0.035,-0.0344,-0.0284,-0.0237,-0.0216,-0.0141,-0.0111,-0.0095,-0.0015,0.0005,0.0069,0.0144,0.017,0.0188,0.0197,0.0235,0.0224,0.0218,0.0211,0.0259,0.0254,0.025,0.0299,0.0299,0.0299,0,0,-0.0443,-0.0411,-0.0419,-0.0383,-0.032,-0.0272,-0.0265,-0.0183,-0.015,-0.0122,-0.0045,0.0004,0.007,0.0123,0.0159,0.0151,0.0211,0.0186,0.0118,0.0163,0.0158,0.0155,0.0204,0.0206,0.0173,0.0173,0.0172,0,-0.0479,-0.0471,-0.0415,-0.0412,-0.0387,-0.0301,-0.0298,-0.0261,-0.0184,-0.0158,-0.0131,-0.0006,0.0048,0.0095,0.0099,0.0133,0.0174,0.0125,0.015,0.0147,0.0146,0.0198,0.0202,0.0167,0.0168,0.0168,0.0169,0,-0.0525,-0.0522,-0.0528,-0.0494,-0.0468,-0.0456,-0.0387,-0.0365,-0.0313,-0.0256,-0.0194,-0.0117,-0.0038,-0.0006,0.0037,0.0068,0.0106,0.0138,0.015,0.0133,0.0191,0.0196,0.0159,0.0161,0.0163,0.0164,0,0,-0.0579,-0.0562,-0.0561,-0.0559,-0.0509,-0.0489,-0.0479,-0.0425,-0.0406,-0.034,-0.0301,-0.0218,-0.0157,-0.011,-0.0037,-0.0008,0.0014,0.0046,0.0052,0.0067,0.0117,0.0168,0.018,0.0045,0.0045,0.0045,0.016,0,-0.0621,-0.0649,-0.0619,-0.0636,-0.0637,-0.0574,-0.0566,-0.0517,-0.0457,-0.0407,-0.0319,-0.0255,-0.0201,-0.016,-0.0124,-0.0003,0.0025,-0.0019,0.0158,0.0163,0.0186,0.0186,0.0236,0.0344,0.0166,0.0167,0.0168,0,-0.066,-0.0675,-0.0705,-0.0697,-0.0689,-0.069,-0.065,-0.0629,-0.0548,-0.0499,-0.0429,-0.0343,-0.0268,-0.0224,-0.0075,-0.0104,-0.0012,0.0065,0.0072,0.0164,0.0225,0.0338,0.0362,0.0506,0.0178,0.0177,0.0176,0,-0.0717,-0.0727,-0.0758,-0.0755,-0.0738,-0.0738,-0.072,-0.0658,-0.0632,-0.0552,-0.0517,-0.041,-0.0338,-0.0229,-0.006,-0.0068,0.0106,0.0124,0.0252,0.0258,0.0358,0.0371,0.0517,0.0207,0.0207,0.0207,0.0207,0,-0.0768,-0.0788,-0.0791,-0.0808,-0.0837,-0.0798,-0.0802,-0.0765,-0.0703,-0.0665,-0.0568,-0.0504,-0.0338,-0.0207,-0.0077,0.0116,0.0099,0.0241,0.0288,0.032,0.0328,0.0506,0.0554,0.0211,0.021,0.0209,0.0209,0,-0.0821,-0.0823,-0.0859,-0.0864,-0.0867,-0.0886,-0.0866,-0.0859,-0.0796,-0.0742,-0.0719,-0.0565,-0.0386,-0.0213,-0.0002,0.011,0.0377,0.0347,0.0375,0.0423,0.0658,0.0696,0.088,0.0974,0.0496,0.0498,0.05,0,-0.085,-0.0877,-0.091,-0.0937,-0.0943,-0.0961,-0.0968,-0.0915,-0.0895,-0.0765,-0.0738,-0.056,-0.0397,-0.0074,0.0148,0.0386,0.0484,0.0556,0.0543,0.0678,0.0757,0.0776,0.0842,0.0636,0.0638,0.064,0.0642,0,-0.09,-0.0913,-0.0944,-0.1006,-0.1032,-0.1054,-0.1052,-0.1047,-0.096,-0.0874,-0.0712,-0.0568,-0.0254,0.0059,0.0348,0.0486,0.0669,0.0606,0.0747,0.0874,0.0906,0.1016,0.0553,0.0661,0.0659,0.0658,0.0657,0.0656,-0.0928,-0.0968,-0.1011,-0.1064,-0.1099,-0.1122,-0.1114,-0.1052,-0.0974,-0.0745,-0.0646,-0.0283,0.0005,0.0434,0.0574,0.0894,0.0843,0.0998,0.1033,0.104,0.1128,0.0701,0.0858,0.0857,0.0857,0.0856,0.0855,0,-0.0953,-0.0998,-0.1061,-0.1118,-0.1158,-0.1161,-0.1143,-0.1054,-0.0901,-0.0603,-0.0349,0.0189,0.0516,0.0803,0.115,0.1319,0.1347,0.1403,0.145,0.1497,0.1137,0.1141,0.1365,0.1365,0.1365,0.1365,0.1364,0.1364,-0.0966,-0.103,-0.1067,-0.1141,-0.1178,-0.1167,-0.1138,-0.0926,-0.0681,-0.0154,0.0309,0.0615,0.0944,0.1362,0.1676,0.1705,0.1861,0.1837,0.1918,0.1674,0.1638,0.1605,0.1623,0.1944,0.1944,0.2283,0.2287,0.2289]}],[{"header":{"parameterUnit":"m.s-1","parameterCategory":2,"la1":30.2991,"la2":30.254,"lo1":-89.0895,"lo2":-89.0444,"dy":0.0017,"dx":0.0017,"nx":28,"ny":28,"refTime":"2025-08-18T21:00:00:Z","depth":"2","parameterNumber":2,"parameterNumberName":"U-component_of_CURRENTS"},"data":[0,0,0,0,0,0,0,0,0,0,0,0,0,0,0,0,0,0,0,0,0,0,0,0,0,0,0,0,0,0,0,0,0,0,0,0,0,0,0,0,0,0,0,0,0,0,0,0,0,0,0,0,0,0,0,0,0,0,-0.2207,-0.2208,0,-0.2196,-0.2196,-0.2195,-0.215,-0.2149,-0.2149,-0.2148,-0.2285,-0.2289,-0.2293,0,0,0,0,0,0,0,0,0,0,0,0,0,-0.2183,-0.2183,-0.2207,-0.2208,-0.2208,-0.2196,-0.2196,-0.2195,-0.215,-0.2149,-0.2149,-0.2148,-0.2283,-0.2288,-0.2294,0,0,0,0,0,0,0,0,0,0,0,0,0,-0.218,-0.2183,-0.2207,-0.2187,-0.2186,-0.2196,-0.2196,-0.2195,-0.215,-0.2149,-0.2148,-0.2148,-0.2282,-0.2288,-0.2294,-0.2352,0,0,-0.2314,-0.2316,0,0,0,0,0,0,0,0,-0.2181,-0.2181,-0.219,-0.2189,-0.2187,-0.2177,-0.2237,-0.2256,-0.2151,-0.2159,-0.2148,-0.2147,-0.2266,-0.2274,-0.2265,-0.2359,-0.2365,-0.2314,-0.2318,-0.2321,-0.2323,0,0,0,0,0,0,0,-0.2181,-0.2181,-0.2198,-0.219,-0.2189,-0.2177,-0.2175,-0.2239,-0.2218,-0.2158,-0.2156,-0.2162,-0.2266,-0.2259,-0.2269,-0.2367,-0.2314,-0.232,-0.2324,-0.2326,-0.2465,-0.2465,0,0,0,0,0,0,-0.2193,-0.2181,-0.2199,-0.2199,-0.2186,-0.2178,-0.2176,-0.2178,-0.2214,-0.2218,-0.2163,-0.216,-0.2249,-0.2261,-0.2274,-0.2324,-0.2321,-0.2327,-0.233,-0.2465,-0.2465,-0.2465,0,0,0,0,0,0,-0.2192,-0.2194,-0.2199,-0.2193,-0.2194,-0.218,-0.2182,-0.2178,-0.2183,-0.2216,-0.2222,-0.2174,-0.2248,-0.2265,-0.2331,-0.233,-0.233,-0.2335,-0.2465,-0.2465,-0.2465,-0.2439,0,0,0,0,0,0,-0.2191,-0.2194,-0.22,-0.2194,-0.2195,-0.2216,-0.2184,-0.2179,-0.219,-0.2186,-0.2229,-0.2238,-0.2249,-0.2321,-0.2337,-0.2339,-0.234,-0.2466,-0.2465,-0.2465,-0.244,-0.2438,-0.2436,0,0,0,0,0,-0.219,-0.2205,-0.22,-0.2203,-0.2203,-0.2218,-0.2217,-0.2201,-0.2192,-0.22,-0.2221,-0.2238,-0.2329,-0.2327,-0.2346,-0.2349,-0.2466,-0.2465,-0.2465,-0.2441,-0.2438,-0.2436,0,0,0,0,0,0,-0.2191,-0.2202,-0.2197,-0.2212,-0.222,-0.2212,-0.2217,-0.2217,-0.2236,-0.2235,-0.2261,-0.2274,-0.2321,-0.2348,-0.2345,-0.2384,-0.2392,-0.2396,-0.2367,-0.2365,-0.2363,-0.2346,-0.2346,0,0,0,0,0,-0.2199,-0.2212,-0.222,-0.2231,-0.2237,-0.2233,-0.2238,-0.2232,-0.2248,-0.2253,-0.2284,-0.231,-0.2333,-0.2361,-0.2391,-0.2442,-0.2435,-0.2447,-0.2445,-0.2443,-0.244,-0.2418,-0.2413,-0.2464,-0.2464,-0.2464,0,0,-0.2199,-0.221,-0.2215,-0.2233,-0.2232,-0.2241,-0.2232,-0.2246,-0.2251,-0.2274,-0.2301,-0.2321,-0.2346,-0.2374,-0.2397,-0.2401,-0.2425,-0.2443,-0.2441,-0.2439,-0.2417,-0.2412,-0.2408,-0.2464,-0.2464,-0.2464,0,0,-0.2202,-0.2219,-0.2225,-0.2241,-0.2256,-0.2258,-0.227,-0.228,-0.228,-0.2319,-0.2313,-0.233,-0.2397,-0.2385,-0.2393,-0.241,-0.2416,-0.2424,-0.2408,-0.2386,-0.2382,-0.2378,-0.2357,-0.2351,-0.2422,-0.2422,-0.2422,0,-0.2196,-0.2207,-0.223,-0.2242,-0.2252,-0.2269,-0.2274,-0.2285,-0.2315,-0.232,-0.2329,-0.2363,-0.2388,-0.239,-0.2377,-0.2404,-0.2397,-0.2414,-0.2382,-0.2378,-0.2374,-0.2355,-0.2348,-0.2421,-0.2421,-0.2421,-0.2421,0,-0.2195,-0.2211,-0.2221,-0.2237,-0.2257,-0.227,-0.2291,-0.2313,-0.2326,-0.2329,-0.2348,-0.2364,-0.2376,-0.2379,-0.2387,-0.2369,-0.2374,-0.2382,-0.2385,-0.2367,-0.2348,-0.2342,-0.2419,-0.242,-0.242,-0.242,0,0,-0.2147,-0.2204,-0.2204,-0.2216,-0.2255,-0.2268,-0.2293,-0.2309,-0.2316,-0.234,-0.2339,-0.2351,-0.2352,-0.2358,-0.2362,-0.2342,-0.2303,-0.2351,-0.235,-0.2325,-0.2257,-0.2179,-0.2166,-0.2308,-0.2307,-0.2306,-0.2253,0,-0.2125,-0.2149,-0.2184,-0.2204,-0.2218,-0.2257,-0.2278,-0.2302,-0.2322,-0.2336,-0.2334,-0.2343,-0.2346,-0.2347,-0.2326,-0.232,-0.2287,-0.2316,-0.2284,-0.2283,-0.221,-0.2156,-0.2005,-0.1938,-0.2247,-0.2246,-0.2246,0,-0.2095,-0.2121,-0.2138,-0.2192,-0.2199,-0.2216,-0.225,-0.2273,-0.2301,-0.2317,-0.2321,-0.2332,-0.2314,-0.2315,-0.2274,-0.2297,-0.2269,-0.2254,-0.2252,-0.2183,-0.2193,-0.2007,-0.1916,-0.2236,-0.2237,-0.2237,-0.2238,0,-0.2039,-0.2085,-0.2098,-0.2116,-0.2179,-0.2191,-0.2218,-0.2257,-0.2277,-0.2299,-0.2312,-0.2304,-0.2299,-0.2269,-0.2243,-0.2261,-0.2191,-0.2212,-0.2109,-0.2104,-0.1969,-0.1953,-0.2156,-0.2156,-0.2156,-0.2157,-0.2157,0,-0.2002,-0.2011,-0.2074,-0.2084,-0.2099,-0.2157,-0.2173,-0.2204,-0.2245,-0.2256,-0.2291,-0.2287,-0.2286,-0.2257,-0.2231,-0.2143,-0.2177,-0.2084,-0.2074,-0.1956,-0.194,-0.2201,-0.2207,-0.2155,-0.2155,-0.2155,-0.2156,0,-0.1937,-0.198,-0.2,-0.206,-0.2076,-0.2085,-0.2147,-0.2159,-0.2211,-0.2226,-0.2233,-0.2267,-0.2223,-0.2205,-0.2153,-0.2112,-0.2049,-0.2005,-0.1867,-0.1839,-0.1983,-0.1989,-0.1886,-0.1882,-0.1879,-0.1877,-0.1875,0,-0.1903,-0.1908,-0.1965,-0.1972,-0.1996,-0.2027,-0.2045,-0.2122,-0.2142,-0.2202,-0.2196,-0.2183,-0.2129,-0.2032,-0.1954,-0.1863,-0.195,-0.169,-0.1682,-0.1949,-0.195,-0.196,-0.1969,-0.1499,-0.1494,-0.149,-0.1486,0,-0.183,-0.1852,-0.1868,-0.1887,-0.1906,-0.1933,-0.1969,-0.1985,-0.2067,-0.2078,-0.2066,-0.2027,-0.1942,-0.177,-0.1672,-0.1612,-0.1696,-0.1603,-0.1895,-0.1594,-0.158,-0.1583,-0.1605,-0.145,-0.1454,-0.1456,-0.1458,-0.146,-0.1758,-0.175,-0.177,-0.1774,-0.18,-0.1805,-0.1777,-0.1829,-0.1831,-0.1809,-0.1877,-0.1762,-0.1722,-0.1472,-0.1377,-0.1313,-0.1435,-0.1384,-0.1398,-0.1416,-0.1384,-0.1366,-0.119,-0.1192,-0.1193,-0.1195,-0.1196,0,-0.165,-0.1649,-0.1651,-0.1651,-0.1625,-0.1681,-0.169,-0.1631,-0.1575,-0.1593,-0.1546,-0.1357,-0.1225,-0.1195,-0.1025,-0.0986,-0.0993,-0.0957,-0.0973,-0.1008,-0.104,-0.0991,-0.0691,-0.069,-0.0688,-0.0687,0,0,-0.1591,-0.1547,-0.1546,-0.1461,-0.1458,-0.1367,-0.1334,-0.1272,-0.1243,-0.1154,-0.1101,-0.1163,-0.1157,-0.0934,-0.087,-0.0752,-0.0876,-0.071,-0.1114,-0.1168,-0.1198,-0.128,-0.1242,0,0,0,0,0]},{"header":{"parameterUnit":"m.s-1","parameterCategory":2,"la1":30.2991,"la2":30.254,"lo1":-89.0895,"lo2":-89.0444,"dy":0.0017,"dx":0.0017,"nx":28,"ny":28,"refTime":"2025-08-18T21:00:00:Z","depth":"2","parameterNumber":3,"parameterNumberName":"V-component_of_CURRENTS"},"data":[0,0,0,0,0,0,0,0,0,0,0,0,0,0,0,0,0,0,0,0,0,0,0,0,0,0,0,0,0,0,0,0,0,0,0,0,0,0,0,0,0,0,0,0,0,0,0,0,0,0,0,0,0,0,0,0,0,0,-0.0321,-0.032,0,-0.0268,-0.0267,-0.0267,-0.022,-0.022,-0.0219,-0.0218,-0.006,-0.0056,-0.0053,0,0,0,0,0,0,0,0,0,0,0,0,0,-0.0351,-0.0352,-0.0321,-0.032,-0.0319,-0.0268,-0.0267,-0.0267,-0.022,-0.022,-0.0219,-0.0218,-0.0061,-0.0057,-0.0053,0,0,0,0,0,0,0,0,0,0,0,0,0,-0.0325,-0.0352,-0.0321,-0.0288,-0.0284,-0.0268,-0.0267,-0.0267,-0.0221,-0.0219,-0.0218,-0.0217,-0.0062,-0.0057,-0.0052,-0.0043,0,0,-0.0036,-0.0034,0,0,0,0,0,0,0,0,-0.0327,-0.0324,-0.0294,-0.029,-0.0286,-0.0247,-0.022,-0.0186,-0.0221,-0.0248,-0.0218,-0.0217,-0.0112,-0.0102,-0.01,-0.0036,-0.0029,-0.0036,-0.0032,-0.003,-0.0029,0,0,0,0,0,0,0,-0.0329,-0.0326,-0.0303,-0.0293,-0.0288,-0.0264,-0.026,-0.0214,-0.0187,-0.0245,-0.0241,-0.0231,-0.0109,-0.0106,-0.0096,-0.0027,-0.0036,-0.0031,-0.0028,-0.0026,0.0073,0.0072,0,0,0,0,0,0,-0.0333,-0.0328,-0.0304,-0.0301,-0.03,-0.0265,-0.026,-0.0263,-0.019,-0.0178,-0.0232,-0.0229,-0.0115,-0.0102,-0.009,-0.0053,-0.003,-0.0025,-0.0022,0.0073,0.0073,0.0072,0,0,0,0,0,0,-0.0334,-0.0332,-0.0306,-0.031,-0.0305,-0.0265,-0.0269,-0.0262,-0.0251,-0.018,-0.0166,-0.0227,-0.0114,-0.0097,-0.0054,-0.0047,-0.0023,-0.0018,0.0074,0.0073,0.0072,0.0008,0,0,0,0,0,0,-0.0335,-0.0333,-0.0338,-0.0311,-0.0305,-0.0297,-0.027,-0.0262,-0.0246,-0.0241,-0.0171,-0.0156,-0.0112,-0.0063,-0.0049,-0.0039,-0.0014,0.0075,0.0074,0.0073,0.0011,0.0005,0.0001,0,0,0,0,0,-0.0337,-0.0349,-0.0339,-0.0336,-0.0313,-0.0298,-0.0293,-0.0262,-0.0247,-0.0247,-0.0205,-0.0158,-0.0059,-0.0059,-0.0043,-0.0031,0.0075,0.0074,0.0073,0.0013,0.0007,0.0001,0,0,0,0,0,0,-0.037,-0.0345,-0.0333,-0.0339,-0.0319,-0.0289,-0.0287,-0.0266,-0.0236,-0.023,-0.0165,-0.0147,-0.0107,-0.0066,-0.0068,-0.0008,0.0017,0.0018,-0.0034,-0.004,-0.0045,-0.0042,-0.001,0,0,0,0,0,-0.038,-0.0383,-0.0353,-0.036,-0.0351,-0.0321,-0.031,-0.0291,-0.0259,-0.0246,-0.0197,-0.0146,-0.0103,-0.007,-0.0029,0.0006,0.005,0.0024,0.0018,0.0014,0.0025,0.0078,0.0079,0.0068,0.0068,0.0068,0,0,-0.0396,-0.0382,-0.0385,-0.0367,-0.0351,-0.0344,-0.0313,-0.0303,-0.0291,-0.0231,-0.0203,-0.0163,-0.0101,-0.0066,-0.0043,-0.0026,0.0037,0.0012,0.0008,0.0023,0.0077,0.0079,0.008,0.0068,0.0068,0.0068,0,0,-0.043,-0.0418,-0.0429,-0.0413,-0.0388,-0.0367,-0.0364,-0.0333,-0.0313,-0.0286,-0.0241,-0.0197,-0.0135,-0.0086,-0.0053,-0.006,0.0001,-0.0051,-0.0063,-0.0013,-0.0011,-0.0009,0.0036,0.0043,-0.0047,-0.0047,-0.0047,0,-0.045,-0.0458,-0.043,-0.0431,-0.042,-0.0379,-0.0383,-0.0358,-0.0317,-0.0297,-0.0283,-0.0192,-0.0139,-0.0083,-0.0087,-0.0068,-0.0036,-0.0045,-0.0019,-0.0016,-0.0012,0.0034,0.0042,-0.005,-0.005,-0.0049,-0.0049,0,-0.0484,-0.0487,-0.0493,-0.0479,-0.0464,-0.0464,-0.0421,-0.0404,-0.0375,-0.034,-0.0288,-0.0227,-0.0167,-0.0148,-0.0115,-0.0066,-0.0052,-0.0038,-0.0003,-0.0015,0.0034,0.0043,-0.0054,-0.0053,-0.0052,-0.0052,0,0,-0.0534,-0.0522,-0.0522,-0.0523,-0.0489,-0.0483,-0.0462,-0.0427,-0.0408,-0.0358,-0.0325,-0.0251,-0.0213,-0.0174,-0.0126,-0.0077,-0.003,-0.0052,-0.0048,-0.0007,0.0075,0.0102,0.0116,-0.0018,-0.0016,-0.0015,0.0095,0,-0.0569,-0.0592,-0.0566,-0.0577,-0.0583,-0.0536,-0.0519,-0.0478,-0.0433,-0.039,-0.0311,-0.0265,-0.0223,-0.0199,-0.0142,-0.0059,-0.0006,-0.0061,0.0082,0.0087,0.0113,0.0128,0.0109,0.0208,0.0105,0.0107,0.0108,0,-0.0604,-0.0615,-0.064,-0.0627,-0.0624,-0.062,-0.0583,-0.0561,-0.0482,-0.0446,-0.0377,-0.0315,-0.0226,-0.02,-0.005,-0.0091,-0.0011,0.0054,0.006,0.012,0.0133,0.0207,0.023,0.0125,0.0124,0.0123,0.0121,0,-0.0654,-0.0659,-0.0684,-0.0681,-0.0661,-0.066,-0.0643,-0.0582,-0.0558,-0.0479,-0.0451,-0.034,-0.0281,-0.0169,-0.0028,-0.0042,0.0135,0.0135,0.0239,0.0241,0.0275,0.0278,0.0244,0.0244,0.0243,0.0243,0.0243,0,-0.0697,-0.0713,-0.0714,-0.0728,-0.0751,-0.0713,-0.0713,-0.0677,-0.0616,-0.0581,-0.0485,-0.0426,-0.0272,-0.015,-0.0032,0.0141,0.0137,0.0252,0.0279,0.025,0.0249,0.0218,0.0213,0.0247,0.0246,0.0246,0.0245,0,-0.0744,-0.0744,-0.0773,-0.0775,-0.0777,-0.0793,-0.0772,-0.0764,-0.0702,-0.0651,-0.0629,-0.0482,-0.032,-0.0159,0.0038,0.0139,0.0295,0.0356,0.031,0.033,0.0365,0.0356,0.0481,0.0483,0.0485,0.0486,0.0487,0,-0.0769,-0.0792,-0.082,-0.0844,-0.0849,-0.0863,-0.087,-0.0818,-0.0797,-0.0675,-0.065,-0.0486,-0.0342,-0.0045,0.0151,0.0368,0.0359,0.0467,0.0447,0.0379,0.0394,0.0381,0.037,0.0461,0.0462,0.0463,0.0464,0,-0.0815,-0.0826,-0.0853,-0.091,-0.0934,-0.0952,-0.0951,-0.0945,-0.0864,-0.0789,-0.065,-0.0522,-0.0237,0.0013,0.0277,0.0397,0.0428,0.0489,0.0451,0.0398,0.0369,0.0379,0.0368,0.047,0.047,0.0469,0.0469,0.0469,-0.0843,-0.088,-0.0919,-0.0967,-0.1,-0.1023,-0.1023,-0.099,-0.0929,-0.0793,-0.0664,-0.0448,-0.0213,0.0173,0.0362,0.0519,0.0518,0.0558,0.0553,0.0547,0.0519,0.0494,0.0614,0.0614,0.0614,0.0614,0.0614,0,-0.0873,-0.0914,-0.097,-0.1023,-0.1064,-0.1065,-0.1058,-0.1023,-0.0934,-0.0789,-0.0621,-0.0337,-0.0054,0.017,0.0435,0.0601,0.0575,0.0615,0.0552,0.0546,0.054,0.0508,0.0602,0.0602,0.0603,0.0603,0,0,-0.089,-0.095,-0.0981,-0.1056,-0.1092,-0.1104,-0.109,-0.1013,-0.0902,-0.0725,-0.0559,-0.0345,-0.0049,0.0134,0.0346,0.0479,0.0461,0.0484,0.0481,0.0377,0.0368,0.0501,0.0445,0,0,0,0,0]}],[{"header":{"parameterUnit":"m.s-1","parameterCategory":2,"la1":30.2991,"la2":30.254,"lo1":-89.0895,"lo2":-89.0444,"dy":0.0017,"dx":0.0017,"nx":28,"ny":28,"refTime":"2025-08-18T21:00:00:Z","depth":"4","parameterNumber":2,"parameterNumberName":"U-component_of_CURRENTS"},"data":[0,0,0,0,0,0,0,0,0,0,0,0,0,0,0,0,0,0,0,0,0,0,0,0,0,0,0,0,0,0,0,0,0,0,0,0,0,0,0,0,0,0,0,0,0,0,0,0,0,0,0,0,0,0,0,0,0,0,-0.1524,-0.1524,0,-0.1543,-0.1544,-0.1544,-0.1554,-0.1554,-0.1554,-0.1554,-0.1592,-0.1593,-0.1594,0,0,0,0,0,0,0,0,0,0,0,0,0,-0.1514,-0.1514,-0.1524,-0.1524,-0.1524,-0.1543,-0.1544,-0.1544,-0.1554,-0.1554,-0.1554,-0.1554,-0.1591,-0.1593,-0.1594,0,0,0,0,0,0,0,0,0,0,0,0,0,-0.1525,-0.1514,-0.1524,-0.1531,-0.1531,-0.1543,-0.1544,-0.1544,-0.1554,-0.1554,-0.1554,-0.1554,-0.1591,-0.1592,-0.1594,-0.1606,0,0,-0.1599,-0.16,0,0,0,0,0,0,0,0,-0.1524,-0.1525,-0.1529,-0.153,-0.1531,-0.1545,-0.1554,-0.1565,-0.1554,-0.1546,-0.1554,-0.1554,-0.1577,-0.158,-0.1585,-0.1608,-0.1609,-0.1599,-0.16,-0.1601,-0.1601,0,0,0,0,0,0,0,-0.1524,-0.1525,-0.1532,-0.153,-0.1531,-0.1539,-0.1541,-0.1556,-0.1563,-0.1547,-0.1548,-0.1548,-0.1578,-0.1583,-0.1586,-0.161,-0.1599,-0.16,-0.1601,-0.1602,-0.1675,-0.1676,0,0,0,0,0,0,-0.1519,-0.1524,-0.1532,-0.1533,-0.1526,-0.154,-0.1541,-0.1542,-0.1563,-0.1565,-0.1549,-0.1549,-0.1581,-0.1584,-0.1587,-0.1646,-0.1601,-0.1602,-0.1603,-0.1674,-0.1675,-0.1676,0,0,0,0,0,0,-0.1518,-0.1519,-0.1531,-0.1528,-0.153,-0.154,-0.154,-0.1542,-0.157,-0.1563,-0.1567,-0.1577,-0.1581,-0.1585,-0.1618,-0.1646,-0.1603,-0.1604,-0.1673,-0.1674,-0.1676,-0.1737,0,0,0,0,0,0,-0.1518,-0.1519,-0.1535,-0.1528,-0.153,-0.1552,-0.154,-0.1542,-0.1569,-0.157,-0.1589,-0.159,-0.1581,-0.1615,-0.1619,-0.1648,-0.1606,-0.1671,-0.1673,-0.1675,-0.1733,-0.174,-0.1746,0,0,0,0,0,-0.1518,-0.1535,-0.1536,-0.1537,-0.1546,-0.1553,-0.1556,-0.1562,-0.1571,-0.1587,-0.1599,-0.1591,-0.1629,-0.1618,-0.1622,-0.1652,-0.1671,-0.1673,-0.1675,-0.1731,-0.1739,-0.1745,0,0,0,0,0,0,-0.1538,-0.1537,-0.1538,-0.1554,-0.156,-0.1554,-0.1576,-0.158,-0.1604,-0.1615,-0.1609,-0.1612,-0.1645,-0.1642,-0.163,-0.1676,-0.1647,-0.165,-0.1688,-0.1696,-0.1702,-0.1704,-0.1607,0,0,0,0,0,-0.1549,-0.1566,-0.156,-0.1577,-0.1583,-0.1587,-0.1598,-0.1601,-0.1612,-0.1623,-0.1634,-0.1646,-0.1654,-0.1671,-0.1674,-0.1712,-0.1691,-0.1731,-0.1737,-0.1742,-0.1747,-0.174,-0.1746,-0.1683,-0.1683,-0.1683,0,0,-0.1562,-0.1565,-0.1576,-0.1584,-0.1592,-0.1607,-0.1594,-0.1618,-0.1638,-0.1624,-0.1669,-0.1668,-0.1666,-0.1696,-0.1712,-0.1703,-0.1749,-0.1745,-0.175,-0.1751,-0.1743,-0.1749,-0.1755,-0.1685,-0.1684,-0.1684,0,0,-0.1583,-0.1601,-0.1615,-0.1626,-0.1641,-0.1644,-0.1657,-0.1667,-0.1683,-0.1716,-0.1707,-0.1729,-0.175,-0.1753,-0.1756,-0.1803,-0.1775,-0.1805,-0.1851,-0.1845,-0.185,-0.1854,-0.1831,-0.1833,-0.1817,-0.1817,-0.1817,0,-0.1597,-0.1611,-0.1622,-0.1638,-0.1652,-0.1665,-0.1682,-0.1703,-0.1724,-0.1739,-0.1739,-0.1769,-0.1775,-0.1803,-0.1819,-0.1818,-0.1801,-0.1824,-0.1853,-0.1857,-0.186,-0.1835,-0.1837,-0.182,-0.182,-0.1819,-0.1819,0,-0.1612,-0.164,-0.1654,-0.1677,-0.1699,-0.1719,-0.1739,-0.1771,-0.1793,-0.1802,-0.1838,-0.1843,-0.1858,-0.1868,-0.1862,-0.1894,-0.1868,-0.1854,-0.1834,-0.187,-0.1842,-0.1842,-0.1825,-0.1824,-0.1823,-0.1822,0,0,-0.1584,-0.1649,-0.1655,-0.1677,-0.1721,-0.1733,-0.1784,-0.1813,-0.1841,-0.1873,-0.1899,-0.193,-0.1932,-0.1935,-0.1933,-0.1942,-0.1955,-0.1919,-0.1917,-0.1896,-0.1929,-0.1792,-0.1778,-0.1946,-0.1947,-0.1947,-0.1898,0,-0.1585,-0.1626,-0.166,-0.1708,-0.1728,-0.1771,-0.1811,-0.185,-0.188,-0.1912,-0.1933,-0.1954,-0.1958,-0.1966,-0.198,-0.1957,-0.1959,-0.1969,-0.1898,-0.1895,-0.1769,-0.1775,-0.1949,-0.1898,-0.1898,-0.1898,-0.1898,0,-0.1566,-0.1602,-0.1649,-0.1719,-0.1732,-0.177,-0.183,-0.1867,-0.1922,-0.1944,-0.1979,-0.1986,-0.2017,-0.2005,-0.1999,-0.2004,-0.1976,-0.1957,-0.1954,-0.1804,-0.1758,-0.1855,-0.1897,-0.1897,-0.1897,-0.1897,-0.1897,0,-0.1515,-0.1586,-0.1628,-0.1652,-0.1734,-0.1771,-0.1815,-0.1877,-0.1907,-0.1964,-0.1982,-0.2016,-0.2023,-0.2013,-0.1984,-0.1994,-0.1951,-0.1953,-0.1802,-0.1791,-0.1904,-0.19,-0.1939,-0.1939,-0.1939,-0.1939,-0.1939,0,-0.1479,-0.1515,-0.1615,-0.1636,-0.1685,-0.1752,-0.1804,-0.1852,-0.1914,-0.1936,-0.1994,-0.1996,-0.2025,-0.2005,-0.1983,-0.1878,-0.1948,-0.1801,-0.1768,-0.193,-0.193,-0.1904,-0.19,-0.1937,-0.1938,-0.1938,-0.1938,0,-0.1412,-0.148,-0.1533,-0.1632,-0.1664,-0.1699,-0.1794,-0.182,-0.1893,-0.1921,-0.1939,-0.1982,-0.1946,-0.1944,-0.1909,-0.1848,-0.1781,-0.1726,-0.1887,-0.1865,-0.1628,-0.1629,-0.1554,-0.1549,-0.1544,-0.1541,-0.1538,0,-0.1377,-0.1401,-0.1515,-0.1544,-0.1594,-0.1662,-0.1698,-0.1794,-0.1817,-0.1889,-0.1881,-0.1882,-0.189,-0.1718,-0.1746,-0.1668,-0.165,-0.1608,-0.1636,-0.1612,-0.1589,-0.1596,-0.1603,-0.153,-0.1529,-0.1528,-0.1527,0,-0.1307,-0.1363,-0.1407,-0.1469,-0.1521,-0.1568,-0.163,-0.1634,-0.1725,-0.1814,-0.1755,-0.1714,-0.166,-0.1615,-0.1551,-0.151,-0.1636,-0.1561,-0.1571,-0.1597,-0.1583,-0.1565,-0.1577,-0.1511,-0.1514,-0.1515,-0.1516,0,-0.1252,-0.1265,-0.1329,-0.1365,-0.143,-0.1438,-0.1492,-0.1502,-0.1534,-0.1619,-0.1593,-0.1593,-0.1637,-0.153,-0.1483,-0.1415,-0.1401,-0.1362,-0.1382,-0.14,-0.1371,-0.1332,-0.1144,0,0,0,0,0,-0.1185,-0.1182,-0.1213,-0.1246,-0.1305,-0.1333,-0.1423,-0.1479,-0.1573,-0.1483,-0.153,-0.1471,-0.1385,-0.1393,-0.1286,-0.1419,-0.1413,-0.1291,-0.1383,-0.1425,-0.1443,-0.1423,0,0,0,0,0,0,-0.1138,-0.1166,-0.117,-0.1131,-0.1124,-0.117,-0.1216,-0.1285,-0.1246,-0.1343,-0.1297,-0.1372,-0.1305,-0.1401,-0.1247,-0.1249,-0.1274,-0.1307,-0.1302,-0.1415,-0.1431,-0.1446,-0.1431,0,0,0,0,0]},{"header":{"parameterUnit":"m.s-1","parameterCategory":2,"la1":30.2991,"la2":30.254,"lo1":-89.0895,"lo2":-89.0444,"dy":0.0017,"dx":0.0017,"nx":28,"ny":28,"refTime":"2025-08-18T21:00:00:Z","depth":"4","parameterNumber":3,"parameterNumberName":"V-component_of_CURRENTS"},"data":[0,0,0,0,0,0,0,0,0,0,0,0,0,0,0,0,0,0,0,0,0,0,0,0,0,0,0,0,0,0,0,0,0,0,0,0,0,0,0,0,0,0,0,0,0,0,0,0,0,0,0,0,0,0,0,0,0,0,-0.0269,-0.0269,0,-0.024,-0.024,-0.024,-0.0214,-0.0213,-0.0213,-0.0213,-0.016,-0.0159,-0.0158,0,0,0,0,0,0,0,0,0,0,0,0,0,-0.0269,-0.0269,-0.0269,-0.0269,-0.0268,-0.024,-0.024,-0.024,-0.0214,-0.0213,-0.0213,-0.0212,-0.016,-0.0159,-0.0158,0,0,0,0,0,0,0,0,0,0,0,0,0,-0.0258,-0.0269,-0.0269,-0.0251,-0.0249,-0.024,-0.024,-0.024,-0.0214,-0.0213,-0.0213,-0.0212,-0.0161,-0.0159,-0.0158,-0.016,0,0,-0.0153,-0.0152,0,0,0,0,0,0,0,0,-0.0259,-0.0259,-0.0254,-0.0252,-0.025,-0.0229,-0.0221,-0.0211,-0.0214,-0.0228,-0.0213,-0.0212,-0.0181,-0.0177,-0.0175,-0.0157,-0.0155,-0.0153,-0.0152,-0.0151,-0.0151,0,0,0,0,0,0,0,-0.026,-0.0259,-0.0259,-0.0254,-0.0251,-0.0233,-0.0232,-0.0219,-0.0208,-0.0227,-0.0225,-0.022,-0.0179,-0.0177,-0.0173,-0.0154,-0.0153,-0.0151,-0.015,-0.015,-0.0127,-0.0127,0,0,0,0,0,0,-0.0264,-0.026,-0.0259,-0.0258,-0.0252,-0.0234,-0.0232,-0.0237,-0.0209,-0.0204,-0.0221,-0.0219,-0.018,-0.0175,-0.0171,-0.0159,-0.0151,-0.015,-0.0149,-0.0127,-0.0127,-0.0128,0,0,0,0,0,0,-0.0264,-0.0265,-0.0261,-0.0257,-0.0255,-0.0235,-0.0241,-0.0237,-0.0234,-0.0204,-0.0199,-0.0222,-0.0179,-0.0174,-0.0166,-0.0157,-0.0149,-0.0147,-0.0126,-0.0127,-0.0127,-0.0143,0,0,0,0,0,0,-0.0265,-0.0265,-0.0272,-0.0258,-0.0255,-0.0261,-0.0241,-0.0237,-0.0232,-0.023,-0.0203,-0.0198,-0.0178,-0.0168,-0.0164,-0.0155,-0.0146,-0.0126,-0.0127,-0.0127,-0.0142,-0.0144,-0.0146,0,0,0,0,0,-0.0265,-0.0278,-0.0273,-0.0273,-0.0266,-0.0261,-0.0259,-0.0242,-0.0233,-0.0237,-0.022,-0.0199,-0.0169,-0.0168,-0.0162,-0.0153,-0.0126,-0.0126,-0.0127,-0.0141,-0.0144,-0.0146,0,0,0,0,0,0,-0.0284,-0.0276,-0.027,-0.0281,-0.0274,-0.0257,-0.0259,-0.0247,-0.0238,-0.0236,-0.0207,-0.0201,-0.0192,-0.0175,-0.0174,-0.015,-0.0142,-0.0142,-0.0155,-0.0157,-0.0158,-0.0147,-0.0145,0,0,0,0,0,-0.0292,-0.03,-0.0287,-0.0297,-0.0294,-0.0278,-0.0274,-0.0265,-0.0252,-0.0248,-0.0229,-0.0209,-0.0192,-0.0177,-0.0167,-0.0153,-0.0119,-0.0143,-0.0145,-0.0147,-0.0135,-0.008,-0.0075,-0.013,-0.013,-0.013,0,0,-0.0304,-0.0299,-0.0305,-0.0302,-0.0295,-0.0293,-0.0275,-0.0275,-0.0269,-0.0244,-0.0235,-0.0221,-0.0194,-0.018,-0.0173,-0.0162,-0.0117,-0.0148,-0.0149,-0.0136,-0.008,-0.0074,-0.0069,-0.0131,-0.013,-0.013,0,0,-0.0328,-0.0327,-0.0338,-0.0332,-0.0323,-0.0312,-0.0313,-0.03,-0.0289,-0.0284,-0.026,-0.0236,-0.0222,-0.0186,-0.0169,-0.0173,-0.0137,-0.0179,-0.0165,-0.0112,-0.0107,-0.0101,-0.0063,-0.0054,-0.0169,-0.0169,-0.0169,0,-0.0343,-0.0353,-0.0342,-0.0345,-0.0341,-0.0321,-0.0327,-0.0313,-0.0298,-0.0285,-0.0286,-0.024,-0.0217,-0.0173,-0.0174,-0.0172,-0.0148,-0.0158,-0.0112,-0.0106,-0.01,-0.0062,-0.0052,-0.017,-0.017,-0.017,-0.0169,0,-0.0368,-0.0375,-0.0381,-0.0378,-0.0372,-0.0377,-0.0353,-0.0346,-0.0333,-0.031,-0.0281,-0.0247,-0.0212,-0.0202,-0.0187,-0.0135,-0.0134,-0.0129,-0.0103,-0.0095,-0.0056,-0.0045,-0.0171,-0.0171,-0.017,-0.017,0,0,-0.0402,-0.0401,-0.0403,-0.0406,-0.039,-0.039,-0.0376,-0.0354,-0.034,-0.0313,-0.0285,-0.0241,-0.0216,-0.0194,-0.0165,-0.011,-0.005,-0.0103,-0.01,-0.0058,0.0056,0.0033,0.0042,-0.0039,-0.0037,-0.0036,0.0063,0,-0.0426,-0.0447,-0.0433,-0.0445,-0.0452,-0.0424,-0.0413,-0.0386,-0.0359,-0.0327,-0.0266,-0.024,-0.0214,-0.02,-0.0138,-0.0081,-0.002,-0.0077,0.0037,0.0041,0.0025,0.0055,-0.0029,0.0072,0.0074,0.0076,0.0077,0,-0.0449,-0.046,-0.0483,-0.0479,-0.0478,-0.0481,-0.0456,-0.0442,-0.0382,-0.0359,-0.0302,-0.0262,-0.0179,-0.0166,-0.003,-0.0073,-0.0005,0.0047,0.0052,0.0048,0.0038,0.0065,0.0098,0.0096,0.0095,0.0093,0.0092,0,-0.0478,-0.0489,-0.0513,-0.0513,-0.0505,-0.0509,-0.0502,-0.0457,-0.0441,-0.0377,-0.0355,-0.0258,-0.0215,-0.0111,-0.0004,-0.0017,0.0141,0.0138,0.0189,0.0187,0.0186,0.0179,0.025,0.025,0.025,0.025,0.0249,0,-0.0501,-0.0518,-0.0535,-0.0547,-0.0571,-0.0548,-0.0554,-0.0528,-0.0483,-0.0456,-0.0377,-0.0329,-0.0199,-0.0098,0.0001,0.0126,0.0151,0.0205,0.022,0.0173,0.0164,0.0193,0.0185,0.0253,0.0252,0.0252,0.0251,0,-0.0523,-0.0534,-0.0564,-0.0579,-0.0589,-0.0606,-0.0605,-0.0598,-0.0552,-0.0512,-0.0494,-0.0375,-0.0245,-0.0112,0.0058,0.0124,0.0249,0.0291,0.0228,0.0235,0.0258,0.0248,0.0357,0.0358,0.0358,0.0358,0.0358,0,-0.0534,-0.0555,-0.06,-0.0629,-0.0643,-0.0665,-0.0678,-0.0644,-0.0627,-0.0534,-0.0511,-0.0384,-0.0294,-0.0061,0.0067,0.0255,0.0278,0.0332,0.0306,0.027,0.0274,0.0263,0.0253,0.0358,0.0358,0.0358,0.0358,0,-0.0556,-0.058,-0.0608,-0.0672,-0.0706,-0.073,-0.0739,-0.073,-0.0672,-0.0632,-0.0505,-0.0376,-0.0228,-0.0058,0.0083,0.0218,0.0288,0.0334,0.0335,0.0311,0.0272,0.0273,0.0263,0.0359,0.0359,0.0359,0.0359,0,-0.0574,-0.0606,-0.0654,-0.0702,-0.0753,-0.0776,-0.0776,-0.0735,-0.0703,-0.059,-0.0548,-0.0372,-0.0267,-0.0075,0.006,0.0181,0.0208,0.0234,0.024,0.0241,0.0169,0.01,0.0162,0,0,0,0,0,-0.0585,-0.0624,-0.0678,-0.0731,-0.0782,-0.0804,-0.0806,-0.0789,-0.0733,-0.0647,-0.059,-0.0442,-0.0221,-0.0117,0.0002,0.0039,0.0205,0.0179,0.0232,0.0362,0.0361,0.0293,0,0,0,0,0,0,-0.0594,-0.0651,-0.0678,-0.0743,-0.0782,-0.0825,-0.0827,-0.079,-0.0725,-0.065,-0.0524,-0.0435,-0.0218,-0.029,-0.0001,0.0037,0.0081,0.0291,0.0293,0.0362,0.0362,0.0361,0.0291,0,0,0,0,0]}]]